Clearfield, PA

9:46 PM EST on November 22, 2017 (GMT -0500)
Clearfield-Lawrence

Weather History for KFIG - October, 2013

Change the Weather History Date:

Saturday, October 12, 2013

  Actual Average (KDUJ) Record (KDUJ)
Temperature  
Mean Temperature 58 °F -  
Max Temperature 71 °F 58 °F 74 °F (1995)
Min Temperature 44 °F 42 °F 28 °F (1964)
Degree Days  
Heating Degree Days 8    
Growing Degree Days 8 (Base 50)    
Moisture  
Dew Point 48 °F    
Average Humidity 79    
Maximum Humidity 100    
Minimum Humidity 49    
Precipitation  
Precipitation 0.00 in - - ()
Sea Level Pressure  
Sea Level Pressure 30.17 in    
Wind  
Wind Speed 5 mph (NE)    
Max Wind Speed 13 mph    
Max Gust Speed -    
Visibility 10 miles    
Events      
Averages and records for this station are not official NWS values.
T = Trace of Precipitation, MM = Missing Value Source: NWS Daily Summary

Daily Weather History Graph

Daily Weather History Graph

Search for Another Location

Airport or City:

Trip Planner

Search our weather history database for the weather conditions in past years. The results will help you decide how hot, cold, wet, or windy it might be!

Date:

Astronomy

Oct. 12, 2013 Rise Set
Actual Time 7:22 AM EDT 6:37 PM EDT
Civil Twilight 6:54 AM EDT 7:04 PM EDT
Nautical Twilight 6:22 AM EDT 7:36 PM EDT
Astronomical Twilight 5:50 AM EDT 8:08 PM EDT
Moon 2:48 PM EDT (10/12) 12:20 AM EDT (10/12)
Length of Visible Light 12h 10m
Length of Day
11h 15m
First Quarter, 58% of the Moon is Illuminated
Oct 12
First Quarter
Oct 18
Full
Oct 26
Last Quarter
Nov 3
New
Nov 10
First Quarter

Hourly Weather History & Observations

Time (EDT) Temp. Windchill Dew Point Humidity Pressure Visibility Wind Dir Wind Speed Gust Speed Precip Events Conditions
12:19 AM 50.0 °F - 48.2 °F 94% 30.12 in 10.0 mi North 5.8 mph - N/A   Overcast
12:54 AM 50.0 °F - 48.0 °F 93% 30.13 in 10.0 mi North 8.1 mph - N/A   Overcast
1:26 AM 51.8 °F - 44.6 °F 76% 30.11 in 10.0 mi North 4.6 mph - N/A   Mostly Cloudy
1:54 AM 48.9 °F - 46.9 °F 93% 30.12 in 10.0 mi North 6.9 mph - N/A   Partly Cloudy
2:54 AM 48.9 °F - 46.0 °F 90% 30.12 in 10.0 mi Calm Calm - N/A   Clear
3:54 AM 48.0 °F - 46.0 °F 93% 30.12 in 10.0 mi NNE 4.6 mph - N/A   Clear
4:34 AM 48.2 °F - 46.4 °F 93% 30.13 in 10.0 mi North 6.9 mph - N/A   Mostly Cloudy
4:54 AM 46.9 °F - 46.0 °F 97% 30.13 in 10.0 mi North 6.9 mph - N/A   Mostly Cloudy
5:04 AM 46.4 °F 43.5 °F 46.4 °F 100% 30.12 in 10.0 mi NNE 5.8 mph - N/A   Scattered Clouds
5:54 AM 46.9 °F - 46.0 °F 97% 30.14 in 10.0 mi North 3.5 mph - N/A   Clear
6:54 AM 46.0 °F 43.9 °F 45.0 °F 96% 30.17 in 10.0 mi North 4.6 mph - N/A   Partly Cloudy
7:01 AM 44.6 °F 41.4 °F 44.6 °F 100% 30.16 in 2.5 mi North 5.8 mph - N/A   Scattered Clouds
7:16 AM 44.6 °F 42.2 °F 44.6 °F 100% 30.16 in 10.0 mi North 4.6 mph - N/A   Partly Cloudy
7:54 AM 46.9 °F - 46.0 °F 97% 30.17 in 10.0 mi NE 5.8 mph - N/A   Scattered Clouds
8:05 AM 48.2 °F - 46.4 °F 93% 30.17 in 10.0 mi Calm Calm - N/A   Mostly Cloudy
8:54 AM 50.0 °F - 46.9 °F 89% 30.19 in 10.0 mi NE 3.5 mph - N/A   Overcast
9:54 AM 52.0 °F - 48.0 °F 86% 30.20 in 10.0 mi Calm Calm - N/A   Overcast
10:54 AM 55.9 °F - 48.9 °F 77% 30.21 in 10.0 mi ENE 4.6 mph - N/A   Overcast
11:54 AM 62.1 °F - 48.9 °F 62% 30.19 in 10.0 mi NE 5.8 mph - N/A   Overcast
12:54 PM 66.9 °F - 52.0 °F 59% 30.18 in 10.0 mi ENE 8.1 mph - N/A   Partly Cloudy
1:54 PM 69.1 °F - 53.1 °F 57% 30.16 in 10.0 mi ENE 10.4 mph - N/A   Clear
2:54 PM 71.1 °F - 54.0 °F 55% 30.15 in 10.0 mi East 12.7 mph - N/A   Clear
3:54 PM 71.1 °F - 52.0 °F 51% 30.15 in 10.0 mi ENE 8.1 mph - N/A   Clear
4:54 PM 71.1 °F - 51.1 °F 49% 30.15 in 10.0 mi East 8.1 mph - N/A   Clear
5:54 PM 68.0 °F - 48.9 °F 50% 30.17 in 10.0 mi East 9.2 mph - N/A   Clear
6:54 PM 64.9 °F - 46.9 °F 52% 30.18 in 10.0 mi East 3.5 mph - N/A   Clear
7:54 PM 61.0 °F - 45.0 °F 56% 30.20 in 10.0 mi ESE 3.5 mph - N/A   Clear
8:54 PM 59.0 °F - 46.0 °F 62% 30.21 in 10.0 mi Calm Calm - N/A   Clear
9:54 PM 55.0 °F - 48.0 °F 77% 30.23 in 10.0 mi NE 3.5 mph - N/A   Overcast
10:54 PM 55.0 °F - 46.0 °F 72% 30.24 in 10.0 mi Calm Calm - N/A   Scattered Clouds
11:13 PM 53.6 °F - 48.2 °F 82% 30.24 in 10.0 mi Calm Calm - N/A   Mostly Cloudy
11:54 PM 54.0 °F - 48.0 °F 80% 30.25 in 10.0 mi North 4.6 mph - N/A   Overcast